Regional Weather Roundup
Issued by NWS Cleveland, OH

Home | Current Version | Previous Version | Text Only | Print | Product List | Glossary Off
Versions: 1 2 3 4 5 6 7 8 9 10 11 12 13 14 15 16 17 18 19 20 21 22 23 24 25 26 27 28 29 30 31 32 33 34 35 36 37 38 39 40 41 42 43 44 45 46 47 48 49 50

000
ASUS41 KCLE 290302
RWRCLE
OHIO REGIONAL WEATHER ROUNDUP
NATIONAL WEATHER SERVICE CLEVELAND, OH
1100 PM EDT SUN MAY 28 2017

NOTE: "FAIR" INDICATES FEW OR NO CLOUDS BELOW 12,000 FEET WITH NO
SIGNIFICANT WEATHER AND/OR OBSTRUCTIONS TO VISIBILITY.

OHZ001>008-015>018-024>027-034-035-043-044-290400-
   NORTHWEST OHIO

CITY           SKY/WX    TMP DP  RH WIND       PRES   REMARKS
DEFIANCE       CLOUDY    64  61  90 W7        29.75R
FINDLAY        CLOUDY    64  59  83 SW9       29.75S
TOLEDO EXPRESS CLOUDY    64  63  96 SW8       29.73R
TOLEDO EXEC    CLOUDY    64  63  96 SW9       29.73R
LIMA           CLOUDY    62  60  93 W7        29.79R
$$

OHZ009>014-019>023-028>033-038-089-290400-
   NORTHEAST OHIO

CITY           SKY/WX    TMP DP  RH WIND       PRES   REMARKS
CLE-HOPKINS    CLOUDY    65  61  87 SE9       29.74F THUNDER
CLE-LAKEFRONT  RAIN      64  60  87 SE17      29.70F
CUY CO. ARPT   TSTM      64  63  94 S7        29.76R
LORAIN-ELYRIA  CLOUDY    63  58  83 SW8       29.75R
ASHTABULA      MOCLDY    62  61  96 S6        29.76F
AKRON-CANTON   CLOUDY    64  58  80 NW9       29.78R THUNDER
WOOSTER        LGT RAIN  61  59  93 SW9       29.80R
MANSFIELD      CLOUDY    60  59  96 S9        29.80S
YOUNGSTOWN     TSTM      63  61  93 SE9       29.78R FOG
$$

OHZ042-051>053-060>062-070>072-077>081-290400-
  SOUTHWEST OHIO

CITY           SKY/WX    TMP DP  RH WIND       PRES   REMARKS
CINC-COVINGTON TSTM      65  62  90 W9        29.85R
CINC-LUNKEN    CLOUDY    68  66  93 W3        29.83S
HAMILTON       RAIN      65  64  97 SW5       29.83R FOG
DAYTON         CLOUDY    64  60  87 SW12      29.81R
WRIGHT-PAT AFB LGT RAIN  66  61  82 SW12      29.78S
DAYTON GENERAL LGT RAIN  65  61  87 SW8       29.81R
WILMINGTON     CLOUDY    67  64  90 SW12      29.82R
$$

OHZ036-037-039>041-045>050-054>059-063>069-073>076-082>088-290400-
  CENTRAL AND SOUTHEAST OHIO

CITY           SKY/WX    TMP DP  RH WIND       PRES   REMARKS
COLUMBUS       LGT RAIN  71  63  75 SW7       29.77F
OSU AIRPORT    LGT RAIN  67  64  90 W3        29.78S
BOLTON FIELD   CLOUDY    67  63  87 SW6       29.79F
RICKENBACK AFB NOT AVBL
NEWARK         CLOUDY    70  61  73 W7        29.78S
MARION         LGT RAIN  62  59  90 SW7       29.82R
LANCASTER      MOCLDY    71  62  73 SW8       29.79F
ZANESVILLE     CLOUDY    71  62  73 SW5       29.79R
NEW PHILLY     NOT AVBL
$$




USA.gov is the U.S. government's official web portal to all federal, state and local government web resources and services.